Location: Ellerstadt
(49.4644°N, 8.2615°E)
Time: 00:09:42
(UTC+00:00)

Lacrosse 4 Rocket - Pass Details

Date: 03 March 2021
Orbit: 537 x 620 km, 68.0° (Epoch: 13 April)

Event Time Altitude Azimuth Distance (km) Brightness Sun altitude
Rises 19:10:50 0° 191° (S) 2,821 4.9 -19.8°
Reaches altitude 10° 19:13:08 10° 183° (S) 1,937 4.0 -20.2°
Enters shadow 19:14:32 19° 174° (S) 1,445 3.2 -20.4°
